Date String (YYYY-MM-DD hh:mm:ss) UTC,Instrument flags,Ambient pressure (hPa),Sample flow (lpm),Bypass flow (lpm),Sample temperature (°C),Ambient temperature (°C),ASC tube jacket temperature (°C),LED temperature (°C),Box temperature (°C),Sample RH (%),Span deviation,Mass concentration (μg/m³),Mass concentration (μg/m³),Mass concentration (μg/m³)
DateTimeUTC,F1_M11,P_M11,Q1_M11,Q2_M11,T1_M11,T2_M11,T3_M11,T4_M11,T5_M11,U1_M11,ZSPAN_M11,X2_M11,X0_M11,X1_M11
2022-12-23 00:00:00,,0829.7,5.03,0.00,21.1,21.7,00.0,29.7,22.9,02.4,0000.6,0005.06,0008.79,0004.60
2022-12-23 00:01:00,,0829.7,4.97,0.00,21.2,21.3,00.0,29.8,22.8,02.4,0001.6,0005.02,0008.77,0004.55
2022-12-23 00:02:00,,0829.6,5.03,0.00,21.1,20.1,00.0,29.8,22.5,02.4,0001.5,0004.98,0008.75,0004.52
2022-12-23 00:03:00,,0829.8,4.96,0.00,20.9,19.0,00.0,29.8,22.1,02.4,0001.5,0004.94,0008.72,0004.50
2022-12-23 00:04:00,,0829.9,4.99,0.00,20.7,18.2,00.0,29.8,21.8,02.5,0001.7,0004.90,0008.64,0004.47
2022-12-23 00:05:00,,0829.9,5.04,0.00,20.7,19.1,00.0,29.7,22.0,02.5,0002.5,0004.88,0008.56,0004.45
2022-12-23 00:06:00,,0829.8,4.97,0.00,20.8,20.2,00.0,29.7,22.3,02.5,0003.2,0004.89,0009.39,0004.44
2022-12-23 00:07:00,,0829.7,5.02,0.00,20.9,21.0,00.0,29.7,22.6,02.5,0003.5,0004.84,0009.31,0004.42
2022-12-23 00:08:00,,0829.9,4.98,0.00,21.0,21.5,00.0,29.7,22.8,02.4,0003.9,0004.80,0009.23,0004.39
2022-12-23 00:09:00,,0830.1,5.04,0.00,21.1,21.7,00.0,29.7,22.9,02.4,0003.6,0004.79,0009.29,0004.39
2022-12-23 00:10:00,,0830.1,4.96,0.00,21.1,20.6,00.0,29.8,22.6,02.4,0003.5,0004.80,0009.31,0004.38
2022-12-23 00:11:00,,0830.1,5.01,0.00,20.9,19.5,00.0,29.8,22.2,02.4,0003.3,0004.79,0008.99,0004.38
2022-12-23 00:12:00,,0830.0,5.03,0.00,20.8,18.6,00.0,29.8,21.8,02.4,0002.9,0004.77,0008.93,0004.36
2022-12-23 00:13:00,,0829.9,4.98,0.00,20.7,19.4,00.0,29.7,22.0,02.4,0003.2,0004.78,0008.95,0004.36
2022-12-23 00:14:00,,0829.9,4.97,0.00,20.8,20.4,00.0,29.6,22.3,02.4,0003.2,0004.78,0008.94,0004.35
2022-12-23 00:15:00,,0829.8,5.03,0.00,20.9,21.0,00.0,29.6,22.5,02.4,0002.9,0004.78,0008.90,0004.33
2022-12-23 00:16:00,,0829.8,4.97,0.00,21.0,21.5,00.0,29.7,22.7,02.4,0002.7,0004.76,0008.89,0004.30
2022-12-23 00:17:00,,0830.0,5.01,0.00,21.1,21.7,00.0,29.7,22.9,02.4,0000.8,0004.71,0008.08,0004.27
2022-12-23 00:18:00,,0830.1,4.99,0.00,21.1,20.6,00.0,29.8,22.6,02.4,0000.9,0004.73,0008.26,0004.28
2022-12-23 00:19:00,,0830.1,5.03,0.00,20.9,19.4,00.0,29.8,22.2,02.4,0002.9,0004.78,0008.84,0004.31
2022-12-23 00:20:00,,0830.2,4.97,0.00,20.8,18.6,00.0,29.8,21.9,02.5,0003.5,0004.80,0009.25,0004.32
2022-12-23 00:21:00,,0830.1,5.00,0.00,20.7,19.3,00.0,29.7,22.0,02.5,0003.9,0004.84,0009.29,0004.33
2022-12-23 00:22:00,,0829.9,5.02,0.00,20.9,20.2,00.0,29.7,22.3,02.5,0004.0,0004.86,0009.35,0004.33
2022-12-23 00:23:00,,0830.0,4.96,0.00,20.9,20.9,00.0,29.6,22.5,02.4,0003.9,0004.85,0009.35,0004.31
2022-12-23 00:24:00,,0830.1,5.03,0.00,21.0,21.4,00.0,29.7,22.7,02.4,0003.7,0004.84,0009.36,0004.30
2022-12-23 00:25:00,,0830.1,4.96,0.00,21.1,21.6,00.0,29.7,22.8,02.4,0003.9,0004.85,0009.45,0004.29
2022-12-23 00:26:00,,0829.9,5.04,0.00,21.1,20.5,00.0,29.8,22.6,02.4,0003.8,0004.85,0009.52,0004.30
2022-12-23 00:27:00,,0829.9,4.96,0.00,20.9,19.3,00.0,29.8,22.2,02.4,0003.5,0004.84,0009.58,0004.32
2022-12-23 00:28:00,,0830.1,5.02,0.00,20.8,19.2,00.0,29.7,22.0,02.4,0002.9,0004.86,0009.49,0004.34
2022-12-23 00:29:00,,0830.1,5.04,0.00,20.9,20.2,00.0,29.7,22.3,02.4,0002.8,0004.86,0009.42,0004.32
2022-12-23 00:30:00,,0830.1,4.97,0.00,21.0,21.0,00.0,29.7,22.6,02.4,0002.6,0004.86,0009.03,0004.31
2022-12-23 00:31:00,,0830.1,5.03,0.00,21.1,21.4,00.0,29.7,22.8,02.4,0002.1,0004.85,0008.74,0004.31
2022-12-23 00:32:00,,0830.2,4.97,0.00,21.2,21.6,00.0,29.7,22.9,02.4,0002.0,0004.86,0008.83,0004.34
2022-12-23 00:33:00,,0830.3,5.03,0.00,21.1,20.3,00.0,29.8,22.5,02.4,0001.5,0004.87,0008.81,0004.36
2022-12-23 00:34:00,,0830.1,4.96,0.00,20.9,19.0,00.0,29.8,22.0,02.5,0001.8,0004.91,0008.91,0004.39
2022-12-23 00:35:00,,0830.0,5.02,0.00,20.7,18.2,00.0,29.8,21.7,02.5,0001.6,0004.94,0008.90,0004.43
2022-12-23 00:36:00,,0830.0,5.02,0.00,20.7,19.1,00.0,29.7,21.9,02.5,0001.7,0004.97,0008.90,0004.46
2022-12-23 00:37:00,,0830.1,4.96,0.00,20.8,20.2,00.0,29.6,22.2,02.5,0001.9,0004.99,0008.84,0004.49
2022-12-23 00:38:00,,0830.1,5.03,0.00,20.9,20.9,00.0,29.6,22.5,02.5,0002.3,0005.02,0008.76,0004.51
2022-12-23 00:39:00,,0830.2,4.97,0.00,21.0,21.5,00.0,29.6,22.7,02.5,0002.6,0005.03,0008.75,0004.53
2022-12-23 00:40:00,,0830.2,5.03,0.00,21.1,21.7,00.0,29.7,22.8,02.4,0002.5,0005.01,0008.67,0004.54
2022-12-23 00:41:00,,0830.2,4.96,0.00,21.1,20.6,00.0,29.8,22.6,02.4,0002.6,0005.00,0008.63,0004.52
2022-12-23 00:42:00,,0830.1,5.02,0.00,20.9,19.3,00.0,29.8,22.1,02.5,0003.0,0005.02,0008.48,0004.52
2022-12-23 00:43:00,,0830.1,5.03,0.00,20.7,18.5,00.0,29.7,21.7,02.5,0002.7,0005.00,0008.58,0004.50
2022-12-23 00:44:00,,0830.1,4.98,0.00,20.7,19.3,00.0,29.7,21.9,02.5,0003.0,0004.99,0008.77,0004.49
2022-12-23 00:45:00,,0830.1,4.98,0.00,20.8,20.4,00.0,29.6,22.3,02.5,0003.0,0004.93,0008.63,0004.46
2022-12-23 00:46:00,,0830.2,5.04,0.00,20.9,21.1,00.0,29.6,22.5,02.5,0003.2,0004.89,0008.53,0004.43
2022-12-23 00:47:00,,0830.1,4.97,0.00,21.0,21.7,00.0,29.6,22.7,02.4,0002.6,0004.83,0008.44,0004.39
2022-12-23 00:48:00,,0830.1,4.96,0.00,21.1,21.2,00.0,29.7,22.7,02.4,0002.3,0004.80,0008.47,0004.35
2022-12-23 00:49:00,,0830.3,5.03,0.00,20.9,20.0,00.0,29.8,22.3,02.4,0001.7,0004.78,0008.47,0004.32
2022-12-23 00:50:00,,0830.5,5.02,0.00,20.8,18.8,00.0,29.8,21.9,02.4,0001.9,0004.78,0008.49,0004.29
2022-12-23 00:51:00,,0830.3,4.96,0.00,20.6,18.7,00.0,29.7,21.7,02.4,0002.1,0004.77,0008.50,0004.28
2022-12-23 00:52:00,,0830.1,5.00,0.00,20.7,19.8,00.0,29.6,22.0,02.4,0002.0,0004.74,0008.77,0004.26
2022-12-23 00:53:00,,0830.1,5.03,0.00,20.8,20.7,00.0,29.6,22.3,02.4,0001.7,0004.68,0008.72,0004.24
2022-12-23 00:54:00,,0830.1,4.98,0.00,20.9,21.3,00.0,29.6,22.6,02.4,0002.2,0004.69,0008.64,0004.24
2022-12-23 00:55:00,,0830.3,4.97,0.00,21.0,21.4,00.0,29.6,22.7,02.4,0002.4,0004.67,0008.43,0004.22
2022-12-23 00:56:00,,0830.4,5.03,0.00,20.9,20.1,00.0,29.7,22.3,02.4,0002.4,0004.72,0008.62,0004.24
2022-12-23 00:57:00,,0830.3,5.04,0.00,20.7,18.9,00.0,29.7,21.8,02.4,0002.7,0004.75,0008.77,0004.25
2022-12-23 00:58:00,,0830.3,4.96,0.00,20.6,19.0,00.0,29.6,21.8,02.4,0002.9,0004.75,0008.80,0004.25
2022-12-23 00:59:00,,0830.2,5.03,0.00,20.7,20.2,00.0,29.6,22.1,02.4,0003.2,0004.74,0009.12,0004.26
